Location: Ku?niki
(51.4449°N, 17.8974°E)
Time: 07:15:09
(UTC+00:00)

Cosmos 2082 Rocket - Pass Details

Date: 18 September 2020
Orbit: 834 x 852 km, 71.0° (Epoch: 19 October)

Event Time Altitude Azimuth Distance (km) Brightness Sun altitude
Rises 18:55:06 0° 330° (NNW) 3,395 6.3 -18.7°
Reaches altitude 10° 18:57:59 10° 344° (NNW) 2,457 5.2 -19.1°
Maximum altitude 19:02:37 25° 39° (NE) 1,617 3.6 -19.8°
Enters shadow 19:04:25 22° 68° (ENE) 1,768 3.5 -20.0°
